This is the latest recevied weather packets stored in our database for station/object KC0AFB. If no packets are shown the sender has not sent any weather packets the latest 10 day(s).
| Time | Temp. | Humidity | Pressure | Rain* | Wind** | Luminosity | Snow |
|---|---|---|---|---|---|---|---|
| 1777925559 | 8.33° C | 54% | 1008.4 hPa | 0 mm | - | 470 W/m² | - |
| 1777925257 | 8.33° C | 54% | 1008.6 hPa | 0 mm | - | 242 W/m² | - |
| 1777924952 | 8.89° C | 52% | 1008.6 hPa | 0 mm | - | 271 W/m² | - |
| 1777924649 | 7.78° C | 54% | 1008.6 hPa | 0 mm | - | 394 W/m² | - |
| 1777924345 | 8.33° C | 54% | 1008.5 hPa | 0 mm | - | 289 W/m² | - |
| 1777924042 | 7.78° C | 53% | 1008.6 hPa | 0 mm | - | 246 W/m² | - |
| 1777923738 | 8.33° C | 51% | 1008.6 hPa | 0 mm | - | 225 W/m² | - |
| 1777923435 | 8.33° C | 53% | 1008.6 hPa | 0 mm | - | 330 W/m² | - |
| 1777923132 | 7.78° C | 54% | 1008.6 hPa | 0 mm | - | 319 W/m² | - |
| 1777922830 | 8.33° C | 53% | 1008.4 hPa | 0 mm | - | 271 W/m² | - |
| 1777922528 | 7.78° C | 51% | 1008.4 hPa | 0 mm | - | 274 W/m² | - |
| 1777922227 | 8.89° C | 49% | 1008.4 hPa | 0 mm | - | 244 W/m² | - |
| 1777921923 | 9.44° C | 48% | 1008.2 hPa | 0 mm | - | 890 W/m² | - |
| 1777921618 | 8.33° C | 51% | 1008.3 hPa | 0 mm | - | 356 W/m² | - |
| 1777921315 | 8.89° C | 49% | 1008.3 hPa | 0 mm | - | 327 W/m² | - |
| 1777921011 | 8.89° C | 47% | 1008.2 hPa | 0 mm | - | 313 W/m² | - |
| 1777920707 | 9.44° C | 49% | 1008.2 hPa | 0 mm | - | 432 W/m² | - |
| 1777920404 | 8.89° C | 47% | 1008.3 hPa | 0 mm | - | 447 W/m² | - |
| 1777920093 | 8.89° C | 46% | 1008.3 hPa | 0 mm | - | 348 W/m² | - |
| 1777919791 | 9.44° C | 46% | 1008.5 hPa | 0 mm | - | 705 W/m² | - |
| 1777919488 | 9.44° C | 45% | 1008.2 hPa | 0 mm | - | 440 W/m² | - |
| 1777919186 | 8.89° C | 45% | 1008 hPa | 0 mm | - | 393 W/m² | - |
| 1777918883 | 8.33° C | 47% | 1008.1 hPa | 0 mm | - | 304 W/m² | - |
| 1777918580 | 8.89° C | 46% | 1008 hPa | 0 mm | - | 345 W/m² | - |
| 1777918278 | 8.33° C | 46% | 1008.2 hPa | 0 mm | - | 376 W/m² | - |
* Rain latest hour (hover to see other rain measurements)
** Current wind speed in m/s (hover to see current wind gust speed)